Location: Alsip
(41.6689°N, 87.7387°W)
Time: 17:26:35
(UTC+00:00)

X-37B - Visible Passes

Search period start: 24 July 2021 00:00
Search period end: 03 August 2021 00:00
Orbit: 383 x 392 km, 45.0° (Epoch: 01 July)

Date Brightness Start Highest point End Pass type
(mag) Time Alt. Az. Time Alt. Az. Time Alt. Az.
30 Jul 2.0 09:59:51 10° SSW 10:02:39 28° SSE 10:05:28 10° E visible
31 Jul 2.7 09:03:53 16° SSE 09:04:28 16° SE 09:06:34 10° ESE visible
01 Aug 1.0 09:40:22 19° SW 09:42:25 50° SSE 09:45:33 10° ENE visible
02 Aug 2.0 08:44:32 28° SE 08:44:32 28° SE 08:46:59 10° E visible
